AKDT,Max TemperatureF,Mean TemperatureF,Min TemperatureF,Max Dew PointF,MeanDew PointF,Min DewpointF,Max Humidity, Mean Humidity, Min Humidity, Max Sea Level PressureIn, Mean Sea Level PressureIn, Min Sea Level PressureIn, Max VisibilityMiles, Mean VisibilityMiles, Min VisibilityMiles, Max Wind SpeedMPH, Mean Wind SpeedMPH, Max Gust SpeedMPH,PrecipitationIn, CloudCover, Events, WindDirDegrees
2013-4-1,1,-8,-17,-4,-10,-23,84,76,71,30.51,30.45,30.41,10,5,1,21,15,,0.00,7,Snow,69
2013-4-2,1,-5,-11,-4,-11,-18,79,74,71,30.73,30.61,30.51,10,4,1,22,18,,0.00,5,Snow,68
2013-4-3,-4,-11,-18,-10,-18,-24,78,75,70,30.87,30.82,30.74,10,5,2,16,13,,0.00,4,,67
2013-4-4,0,-8,-16,-8,-16,-22,84,75,70,30.87,30.84,30.74,10,5,1,15,11,,0.00,5,Snow,63
2013-4-5,0,-6,-11,-5,-10,-17,84,76,69,30.74,30.62,30.55,10,7,0,18,9,,0.00,7,Snow,52
2013-4-6,0,-7,-14,-8,-11,-20,84,74,66,30.55,30.32,30.17,10,4,1,12,8,,0.00,8,Snow,20
2013-4-7,-2,-14,-25,-10,-20,-30,92,77,69,30.19,30.17,30.13,10,6,0,9,5,,0.00,2,Snow,63
2013-4-8,-2,-6,-11,-9,-13,-17,79,73,68,30.13,30.07,30.01,10,7,2,10,8,,0.00,4,Snow,326
2013-4-9,-4,-10,-16,-11,-16,-22,78,73,65,30.00,29.87,29.79,10,7,1,17,9,,0.00,4,Snow,349
2013-4-10,1,-4,-8,-6,-10,-14,79,74,69,30.17,29.95,29.81,10,5,1,20,14,,0.00,6,Snow,347
2013-4-11,1,-5,-14,-5,-10,-20,92,80,69,30.44,30.34,30.17,10,8,2,13,7,,0.00,0,,299
2013-4-12,1,-8,-18,-6,-15,-23,82,71,60,30.45,30.39,30.34,10,10,10,15,8,,0.00,0,,121
2013-4-13,5,-1,-7,-3,-11,-15,79,70,65,30.53,30.37,30.29,10,10,10,13,8,,0.00,1,,78
2013-4-14,9,0,-9,2,-5,-16,95,79,72,30.90,30.75,30.55,10,9,3,10,7,,0.00,1,,329
2013-4-15,1,-4,-9,-6,-10,-16,87,74,66,30.91,30.88,30.79,10,5,0,12,4,,0.00,3,,89
2013-4-16,0,-7,-14,-7,-13,-21,84,74,69,30.79,30.68,30.65,10,8,2,15,11,,0.00,2,,70
2013-4-17,5,-4,-14,-2,-12,-19,79,74,70,30.74,30.70,30.65,10,10,6,14,11,,0.00,1,,52
2013-4-18,3,-6,-14,-3,-10,-19,79,74,69,30.74,30.66,30.58,10,10,2,12,9,,0.00,0,,69
2013-4-19,12,0,-13,7,-5,-18,84,78,71,30.56,30.47,30.35,10,10,10,10,4,,0.00,0,,186
2013-4-20,18,12,5,12,7,1,85,80,77,30.36,30.33,30.31,10,10,10,15,11,,0.00,2,,238
2013-4-21,19,14,10,15,9,4,92,84,76,30.37,30.34,30.20,10,8,0,17,13,,0.00,5,Fog-Snow,236
2013-4-22,27,18,10,23,19,3,88,82,73,30.19,30.05,29.94,10,3,0,36,22,46,0.05,8,Fog-Snow,214
2013-4-23,28,26,24,25,22,19,93,85,78,29.99,29.96,29.94,10,7,1,39,28,45,0.00,6,Snow,230
2013-4-24,25,18,10,21,10,4,89,78,67,30.40,30.19,29.95,10,10,5,18,14,23,0.00,3,,293
2013-4-25,19,12,6,14,7,1,88,78,68,30.40,30.27,29.99,10,10,8,12,9,,0.00,2,,256
2013-4-26,18,12,3,16,11,0,93,83,73,30.19,29.86,29.74,10,5,0,16,8,,0.03,7,Fog-Snow,80
2013-4-27,21,11,3,17,8,-2,89,82,77,30.25,30.23,30.20,10,5,2,20,10,25,0.00,8,Snow,266
2013-4-28,21,19,17,18,14,10,88,81,73,30.21,30.19,30.17,10,6,2,18,14,24,0.00,8,Snow,281
2013-4-29,17,12,7,14,8,4,92,81,73,30.32,30.22,30.16,10,6,2,12,8,,0.00,7,Snow,305
2013-4-30,10,4,0,3,-3,-8,85,76,63,30.54,30.45,30.32,10,9,2,16,10,,0.00,4,Snow,27